Temperature
15 15 15 15 16 16 16 16 16 16 16 16 16 16 16 16 16 16 16 16 16 16 16 16 16 16 16 16 16 15 15 15 15 15 15 15 15 15 14 14 14 14 14
14 15 15 15 15 15 15 15 15 15 15 15 15 15 15 16 15 15 15 15 16 16 16 16 16 16 15 15 15 15 15 15 15 15 14 14 14 14 14 14 14 14 14
14 14 15 15 15 15 15 15 15 15 15 15 15 15 15 15 15 15 15 15 15 15 15 15 15 15 15 15 15 15 15 15 14 14 14 14 14 14 14 14 14 14 14
14 14 14 15 15 15 15 15 15 15 15 15 15 15 15 15 15 15 15 15 15 15 15 15 15 15 15 15 15 15 14 14 14 14 14 14 14 14 14 14 14 14 14
14 14 14 14 14 14 15 15 15 15 15 15 15 15 15 15 15 15 15 15 15 15 15 15 15 15 15 15 15 14 14 14 14 14 13 14 14 14 14 14 14 14 14
13 13 14 14 14 14 14 14 14 14 14 15 15 15 15 15 15 15 15 15 15 15 15 15 15 15 15 14 14 14 14 14 13 13 13 13 13 13 13 14 14 13 13
13 13 13 14 14 14 14 14 14 14 14 14 14 14 14 14 14 15 15 14 14 14 14 14 14 14 14 14 14 14 14 13 13 13 13 13 13 13 13 13 13 13 13
13 13 13 13 13 13 14 14 14 14 14 14 14 14 14 14 14 14 14 14 14 14 14 14 14 14 14 14 14 14 13 13 13 13 13 13 13 13 13 13 13 13 13
12 13 13 13 13 13 13 13 13 13 14 14 14 14 14 14 14 14 14 14 14 14 14 14 14 14 14 14 14 14 13 13 13 13 13 13 13 13 13 13 13 13 13
12 12 12 12 12 13 13 13 13 13 13 13 13 13 13 14 14 14 14 14 14 14 14 14 14 14 14 14 13 13 13 13 12 12 12 13 12 12 12 12 12 12 12
12 12 12 12 12 12 12 12 12 13 13 13 13 13 13 13 13 13 13 14 14 14 14 14 14 14 14 13 13 13 13 12 12 12 12 12 12 12 12 12 12 12 12
11 11 11 12 12 12 12 12 12 12 12 12 13 13 13 13 13 13 13 13 13 13 13 13 13 13 13 13 13 12 12 12 12 12 12 12 12 12 12 12 12 12 12
11 11 11 11 11 11 11 11 11 12 12 12 12 12 12 12 12 12 12 13 13 13 13 13 13 13 13 12 12 12 12 12 11 11 12 12 12 12 12 12 12 12 12
10 10 10 11 11 11 11 11 11 11 11 11 11 12 12 12 12 12 12 12 12 12 12 12 12 12 12 12 12 12 12 12 11 11 11 11 11 11 11 11 11 11 11
10 10 10 10 10 11 11 11 11 11 11 11 11 11 11 11 11 11 12 12 12 12 12 12 12 12 12 12 12 12 12 11 11 11 11 11 11 11 11 11 11 11 11
10 10 10 10 10 10 10 10 10 10 10 10 10 11 11 11 11 11 11 11 11 12 12 12 12 12 12 12 11 11 11 11 11 11 11 11 11 11 11 11 11 11 10
9 9 9 9 9 10 10 10 10 10 10 10 10 10 10 10 10 10 10 11 11 11 11 11 11 11 11 11 11 11 11 11 10 10 10 10 10 10 10 10 10 10 10
9 9 9 9 9 9 9 9 9 9 9 9 9 9 9 10 10 10 10 10 10 10 10 11 11 11 11 11 11 10 10 10 10 10 10 10 10 10 10 10 10 10 10
8 8 8 8 8 9 9 9 9 9 9 9 9 9 9 9 9 9 9 9 10 10 10 10 10 10 10 10 10 10 10 10 10 9 9 9 9 9 9 9 9 9 9
8 8 8 8 8 8 8 8 8 8 8 8 8 8 8 8 9 9 9 9 9 9 9 9 9 9 10 10 10 9 9 9 9 9 9 9 9 9 9 9 9 9 9
7 7 7 7 7 7 7 7 7 7 8 8 8 8 8 8 8 8 8 8 8 8 8 8 9 9 9 9 9 9 9 9 9 9 9 9 9 8 9 9 9 9 9
6 6 6 7 7 7 7 7 7 7 7 7 7 7 7 7 7 7 7 8 8 8 8 8 8 8 8 8 8 8 8 8 8 8 8 8 8 8 8 8 8 8 8
6 6 6 6 6 6 6 6 6 6 6 6 6 7 7 7 7 7 7 7 7 7 7 7 7 7 7 7 7 7 7 7 7 7 7 8 8 7 7 8 7 7 7
5 5 5 5 5 5 5 6 6 6 6 5 6 6 6 6 6 6 6 7 7 7 7 7 7 7 7 7 6 6 7 7 6 6 6 7 7 7 7 7 7 7 7
5 5 5 5 5 5 5 5 5 5 5 5 5 5 5 6 6 6 6 6 6 6 6 6 6 6 6 6 6 6 6 6 6 6 5 6 6 6 6 6 6 6 6
4 4 5 4 4 4 4 4 4 4 4 4 4 5 5 5 5 5 5 5 5 5 5 6 6 6 6 5 5 5 5 5 5 5 5 5 5 5 5 6 6 6 6
Wind_Speed
4 5 6 6 6 6 6 6 7 6 6 6 6 7 7 8 9 9 10 10 11 11 11 11 11 11 12 12 12 13 13 13 13 13 13 13 13 13 13 13 13 13 14
4 6 6 6 6 6 7 7 7 6 6 6 6 6 6 7 8 9 9 9 9 10 10 10 10 11 11 12 11 11 12 11 11 11 12 12 12 12 12 12 13 12 13
5 6 7 7 7 7 7 7 7 7 6 6 6 6 7 7 7 8 9 9 8 9 9 9 10 10 11 11 11 10 10 9 9 8 9 10 11 11 12 12 13 13 13
6 7 7 8 8 7 6 7 7 6 6 6 6 6 6 6 7 7 8 8 8 8 9 9 9 9 10 10 10 9 8 6 6 5 7 9 10 10 11 11 11 11 11
7 8 9 9 8 7 7 7 6 6 6 6 5 5 6 6 6 7 7 7 8 8 8 8 8 9 9 9 9 8 6 4 4 3 6 9 9 9 10 10 10 10 10
7 9 9 10 9 9 8 7 7 6 5 5 5 5 6 6 7 6 6 7 7 7 8 8 8 8 8 8 7 6 5 3 3 3 7 10 9 9 9 9 9 9 9
6 8 9 10 10 9 8 8 7 7 6 5 5 5 5 6 6 6 6 6 6 7 7 7 7 7 8 7 6 5 3 2 3 5 8 10 9 8 8 8 8 8 7
6 8 8 9 9 9 9 8 8 7 6 5 5 4 5 5 5 6 6 6 6 7 7 7 7 7 7 6 5 4 3 2 2 5 9 9 8 7 7 8 7 7 7
7 7 7 7 7 7 8 8 8 7 7 6 4 3 4 4 4 5 5 5 6 6 6 6 6 6 6 5 4 3 3 1 2 5 7 8 7 7 7 7 7 7 6
6 5 5 5 5 5 6 7 7 7 6 6 5 4 2 3 4 4 4 5 5 6 5 6 6 5 5 5 4 3 2 0 2 6 7 7 7 7 6 6 5 5 5
5 4 4 4 4 4 4 5 5 5 5 5 4 4 2 2 3 3 4 4 5 6 5 5 5 5 5 4 4 3 2 1 4 6 6 6 6 6 5 5 4 4 4
3 3 3 3 3 4 4 4 3 3 4 5 5 5 4 3 3 3 3 4 5 5 5 5 5 5 4 3 3 3 1 1 4 6 7 7 6 5 4 4 4 4 4
2 3 3 2 3 3 3 3 3 4 4 4 6 6 5 3 3 4 3 2 3 4 3 4 3 3 3 3 2 2 2 2 4 6 7 7 6 4 4 4 4 3 3
2 2 2 2 2 3 3 3 4 3 3 4 4 5 4 3 3 3 3 2 1 2 2 2 2 2 2 3 3 2 2 2 3 6 7 7 5 4 3 3 3 3 4
3 3 2 2 2 3 3 3 3 3 3 4 4 5 5 4 3 3 3 3 2 2 1 1 2 1 2 2 2 2 2 2 3 5 6 6 5 4 3 2 3 3 3
3 3 2 2 2 3 2 2 2 3 4 4 4 4 5 4 4 3 2 3 3 2 1 1 1 1 1 2 2 2 2 2 2 4 6 5 5 4 3 3 3 2 2
2 3 2 2 3 3 2 3 3 4 4 4 4 4 4 5 4 3 2 2 3 3 2 1 1 1 1 2 1 1 2 2 2 4 4 5 4 3 2 2 2 2 1
3 3 3 3 3 3 2 2 3 4 3 3 4 4 4 4 4 3 3 2 3 3 2 1 0 1 1 1 1 1 1 2 2 2 4 5 4 3 2 2 1 1 0
3 3 3 3 3 3 2 2 3 3 3 4 4 4 4 4 4 3 3 3 4 3 2 1 1 1 1 1 1 1 1 1 1 2 2 3 4 3 2 2 1 1 1
3 3 3 3 3 2 2 1 1 2 2 4 4 4 4 4 4 4 3 3 3 2 2 2 2 1 1 1 1 1 1 2 1 1 2 2 2 3 2 2 2 2 2
4 4 4 3 2 2 1 1 1 1 1 1 3 4 4 4 4 4 2 2 2 1 2 1 1 1 1 1 1 0 0 1 1 1 2 2 1 2 2 2 2 2 2
4 4 3 3 2 2 1 0 0 0 0 1 2 3 4 4 3 2 2 1 1 1 2 1 1 0 0 1 1 1 0 1 1 2 1 2 1 1 1 2 2 2 2
3 3 2 2 2 2 1 1 0 0 0 1 1 0 2 2 3 3 2 1 1 1 1 1 0 0 1 0 1 1 1 2 1 1 1 1 1 1 1 2 2 3 3
2 2 2 2 2 2 2 1 1 0 0 1 1 0 1 2 2 2 2 1 1 0 1 1 1 1 1 1 0 0 1 1 1 1 2 2 1 2 2 2 2 3 3
2 2 2 2 1 2 1 1 0 0 0 0 0 0 0 0 1 2 1 1 0 0 1 1 1 1 1 1 1 0 1 1 0 1 2 2 2 2 2 3 3 3 4
2 2 2 2 1 1 1 1 1 1 1 0 1 1 1 1 0 1 1 0 0 1 1 1 2 2 2 2 1 1 1 1 1 1 2 2 3 3 3 3 2 3 4
Wind_Direction
67 72 68 63 70 68 66 78 89 92 100 105 106 107 106 104 103 103 101 100 99 101 103 101 98 94 92 88 86 87 86 87 88 88 87 86 86 85 83 82 83 81 84
72 79 74 66 74 71 67 70 81 87 97 105 111 111 111 110 108 108 107 106 104 103 103 104 101 97 97 93 90 90 91 92 92 91 90 87 86 85 82 78 82 84 85
67 79 70 67 68 72 72 71 75 82 90 99 108 113 113 112 110 108 107 107 109 108 106 104 103 100 98 95 93 92 93 96 97 95 94 92 89 88 85 84 86 86 85
62 73 63 65 65 69 74 75 78 80 81 87 97 103 110 112 110 108 106 105 106 109 108 106 107 103 99 99 101 99 98 96 95 98 98 98 95 94 92 91 89 88 86
61 66 64 65 66 66 68 68 68 74 77 80 92 100 105 108 111 112 109 107 106 109 111 109 110 109 105 104 106 107 102 91 91 99 91 98 98 102 99 97 95 93 88
63 66 69 68 67 66 64 63 60 66 73 77 84 103 112 109 106 107 107 107 109 107 108 108 109 113 112 112 111 111 106 83 96 90 84 92 98 106 103 102 101 97 93
62 64 72 70 65 64 64 63 61 60 66 74 76 83 104 115 112 105 105 111 113 114 111 111 113 113 116 117 118 113 108 81 101 87 85 88 97 102 105 106 105 102 97
66 65 65 68 65 61 61 61 62 59 59 65 73 81 96 105 120 117 112 114 115 112 117 116 118 118 114 117 121 120 100 93 97 95 87 93 104 106 106 105 105 103 98
66 63 58 56 63 64 60 57 58 56 56 52 55 76 103 109 113 125 121 119 121 119 117 120 121 125 126 124 126 126 108 81 30 84 94 97 108 109 109 108 104 101 98
66 67 58 55 58 70 71 60 54 52 50 50 44 40 85 124 122 125 127 122 126 128 123 124 123 132 138 141 142 143 135 110 73 79 89 103 114 113 114 114 112 107 105
59 59 58 51 50 62 76 66 53 49 44 46 43 29 60 90 96 109 123 125 129 134 134 132 130 132 141 151 164 159 149 138 96 89 87 101 108 112 114 120 120 114 110
56 57 53 45 34 51 66 73 59 54 44 41 40 28 28 44 61 89 120 132 135 132 142 145 142 139 141 147 163 145 142 120 107 98 95 103 104 106 105 107 114 110 104
76 61 54 45 38 47 53 65 56 53 45 42 44 40 31 34 45 62 78 104 127 137 137 145 144 146 138 124 120 127 94 87 95 101 106 108 105 101 102 101 97 102 102
68 68 64 45 49 43 53 57 57 53 44 48 44 50 40 33 38 41 44 44 90 106 127 141 121 124 131 118 121 120 101 94 91 104 114 114 105 102 98 98 103 103 96
63 73 83 63 54 48 49 47 55 47 50 58 54 50 46 37 29 37 37 29 34 56 74 124 124 132 131 121 128 118 98 92 101 106 117 122 118 110 103 101 105 111 103
53 66 76 72 61 56 59 60 63 54 57 59 54 48 50 44 33 29 27 17 17 16 27 81 120 143 129 121 139 127 115 111 110 108 117 125 123 118 109 106 96 101 105
58 60 68 83 62 61 61 54 57 53 59 60 57 52 47 46 40 35 32 19 8 3 17 48 78 85 131 121 140 113 94 98 95 106 115 121 125 118 115 112 98 85 78
65 63 63 64 59 56 61 61 54 53 56 58 58 55 46 45 44 45 35 15 7 15 26 15 171 143 147 137 134 141 113 98 98 108 113 114 121 123 123 127 125 116 40
65 72 72 65 59 50 45 65 72 62 62 56 53 49 44 46 46 51 46 24 23 20 21 20 9 135 134 137 172 168 136 126 130 114 107 115 122 128 140 159 157 203 269
68 73 75 73 59 43 35 47 61 71 66 57 52 45 48 41 40 47 48 41 35 36 31 25 18 18 109 139 168 184 187 151 129 144 149 127 136 145 143 151 174 222 264
72 69 65 69 58 50 44 44 51 53 45 48 46 45 51 50 41 43 37 49 48 67 61 42 22 24 41 73 102 161 290 165 172 190 163 145 149 155 150 155 175 192 247
68 62 65 61 59 55 30 355 3 138 131 79 50 44 40 46 48 42 44 53 64 90 62 51 43 64 23 74 116 135 226 298 300 242 186 171 182 146 143 185 201 204 222
58 57 59 60 52 43 25 36 36 68 106 45 26 23 31 38 42 36 36 43 57 113 141 145 81 167 178 12 72 110 143 214 276 274 246 205 201 189 197 208 216 226 226
76 65 59 63 60 43 29 35 62 97 151 237 217 206 24 44 51 38 37 51 49 151 186 201 169 199 147 181 290 358 106 131 157 266 287 266 257 230 224 227 228 225 225
81 79 63 49 57 58 39 11 333 193 240 305 213 220 240 13 47 38 34 49 16 282 213 193 204 209 186 189 183 277 277 309 213 185 251 265 274 258 244 233 223 218 224
72 69 61 44 32 43 33 3 338 312 288 295 298 250 263 263 301 8 3 6 322 280 252 223 211 223 222 221 229 208 188 213 221 210 245 260 265 264 260 244 228 223 233
Height
1503 1503 1504 1505 1506 1506 1507 1508 1509 1509 1511 1512 1513 1514 1515 1516 1517 1518 1518 1519 1520 1521 1522 1522 1523 1524 1524 1525 1525 1526 1527 1528 1528 1529 1529 1530 1530 1531 1531 1532 1532 1533 1533
1503 1504 1504 1505 1506 1507 1507 1508 1509 1510 1511 1512 1513 1514 1515 1516 1517 1518 1519 1520 1521 1522 1522 1523 1524 1525 1525 1526 1526 1527 1528 1529 1529 1530 1530 1531 1532 1532 1532 1533 1533 1534 1534
1503 1503 1504 1505 1506 1507 1507 1508 1509 1510 1511 1512 1513 1514 1515 1516 1517 1518 1519 1520 1521 1522 1523 1524 1525 1525 1526 1526 1527 1528 1529 1530 1531 1531 1531 1532 1532 1533 1533 1534 1534 1535 1535
1503 1503 1504 1505 1506 1507 1507 1508 1509 1510 1511 1512 1513 1514 1515 1516 1517 1518 1519 1520 1521 1522 1523 1524 1525 1526 1527 1527 1528 1529 1529 1531 1532 1532 1532 1533 1533 1534 1534 1535 1535 1535 1536
1503 1503 1504 1505 1505 1506 1507 1508 1509 1510 1511 1512 1513 1514 1515 1516 1517 1518 1519 1520 1521 1522 1523 1524 1525 1526 1527 1528 1528 1529 1530 1531 1532 1533 1533 1533 1534 1534 1535 1535 1535 1536 1536
1502 1503 1504 1504 1505 1506 1506 1507 1508 1509 1510 1511 1512 1513 1514 1515 1516 1517 1519 1520 1521 1522 1523 1524 1525 1526 1527 1528 1529 1530 1531 1532 1532 1533 1533 1534 1534 1535 1535 1535 1535 1536 1536
1502 1503 1503 1504 1505 1505 1506 1507 1508 1509 1510 1511 1512 1513 1514 1515 1516 1517 1518 1519 1521 1522 1523 1524 1525 1526 1527 1528 1529 1530 1531 1532 1532 1533 1534 1534 1534 1535 1535 1535 1536 1536 1536
1502 1502 1503 1504 1504 1505 1505 1506 1507 1508 1509 1510 1511 1512 1513 1514 1515 1516 1517 1518 1520 1521 1522 1523 1524 1525 1526 1527 1528 1529 1530 1531 1532 1533 1533 1534 1534 1535 1535 1535 1536 1536 1536
1501 1501 1502 1503 1503 1504 1504 1505 1506 1507 1508 1509 1510 1511 1512 1512 1513 1514 1515 1517 1518 1520 1521 1522 1523 1525 1526 1527 1528 1529 1530 1531 1532 1532 1533 1533 1534 1534 1535 1535 1535 1536 1536
1500 1501 1501 1502 1502 1503 1503 1503 1504 1505 1506 1507 1508 1510 1511 1511 1512 1513 1514 1515 1517 1518 1520 1521 1522 1524 1525 1526 1527 1528 1529 1530 1531 1532 1532 1533 1533 1534 1534 1535 1535 1535 1536
1499 1499 1500 1500 1501 1501 1502 1503 1503 1504 1505 1506 1507 1508 1509 1510 1510 1512 1513 1514 1515 1517 1518 1520 1521 1522 1524 1525 1526 1527 1528 1529 1530 1531 1531 1532 1533 1533 1534 1534 1535 1535 1535
1497 1498 1498 1499 1499 1500 1501 1502 1502 1503 1503 1504 1505 1506 1507 1508 1509 1510 1511 1513 1514 1515 1517 1518 1519 1521 1522 1523 1524 1526 1526 1528 1528 1529 1530 1531 1532 1533 1533 1533 1534 1534 1534
1496 1496 1497 1497 1498 1499 1500 1500 1501 1502 1502 1503 1503 1504 1505 1506 1507 1508 1510 1511 1513 1514 1515 1516 1518 1519 1520 1521 1523 1524 1525 1526 1527 1528 1529 1530 1531 1531 1532 1532 1533 1533 1533
1494 1494 1495 1496 1497 1498 1498 1499 1499 1500 1500 1501 1502 1503 1504 1504 1505 1506 1508 1509 1511 1512 1513 1514 1516 1517 1519 1520 1521 1522 1524 1525 1525 1526 1527 1528 1529 1530 1531 1531 1531 1532 1532
1493 1493 1493 1494 1495 1496 1497 1497 1498 1498 1499 1499 1500 1501 1501 1502 1503 1504 1506 1507 1508 1510 1511 1512 1514 1515 1517 1518 1519 1520 1522 1523 1524 1524 1525 1526 1527 1528 1529 1529 1530 1530 1530
1491 1492 1492 1493 1494 1494 1495 1496 1496 1496 1497 1497 1498 1499 1499 1500 1501 1502 1504 1505 1506 1507 1509 1510 1512 1513 1515 1516 1517 1518 1520 1521 1522 1522 1523 1524 1525 1526 1527 1527 1528 1528 1528
1490 1490 1490 1491 1492 1493 1493 1494 1494 1495 1495 1496 1496 1497 1498 1498 1499 1500 1502 1503 1504 1505 1506 1508 1510 1511 1512 1514 1515 1516 1518 1519 1520 1520 1521 1522 1523 1524 1524 1525 1525 1526 1526
1488 1488 1488 1489 1490 1491 1491 1492 1492 1493 1493 1494 1495 1495 1496 1496 1497 1498 1499 1500 1501 1503 1504 1506 1507 1508 1510 1511 1513 1514 1515 1516 1517 1518 1519 1520 1521 1521 1522 1523 1523 1524 1524
1486 1486 1486 1487 1487 1488 1489 1490 1490 1491 1492 1492 1493 1493 1494 1495 1496 1496 1497 1498 1499 1500 1502 1503 1504 1505 1507 1508 1510 1512 1513 1514 1515 1516 1517 1517 1518 1519 1520 1520 1521 1521 1521
1484 1484 1484 1485 1486 1486 1487 1488 1488 1489 1490 1490 1490 1491 1492 1493 1494 1495 1495 1496 1497 1498 1499 1500 1502 1503 1504 1506 1507 1509 1510 1512 1513 1513 1514 1515 1516 1516 1517 1518 1518 1518 1519
1482 1482 1483 1483 1484 1484 1485 1485 1486 1486 1487 1488 1489 1490 1490 1491 1492 1493 1493 1494 1495 1496 1497 1498 1499 1501 1501 1503 1504 1506 1507 1509 1510 1511 1511 1512 1513 1514 1514 1515 1515 1515 1516
1481 1481 1481 1481 1482 1482 1483 1484 1484 1485 1486 1486 1487 1488 1488 1489 1490 1490 1491 1491 1492 1493 1494 1496 1497 1498 1499 1500 1501 1502 1503 1506 1506 1507 1508 1509 1509 1510 1511 1511 1512 1512 1512
1479 1480 1480 1480 1480 1481 1481 1482 1482 1483 1483 1484 1485 1485 1486 1487 1487 1488 1488 1489 1490 1490 1491 1493 1494 1495 1496 1497 1499 1500 1501 1501 1502 1504 1505 1505 1506 1507 1508 1508 1509 1509 1509
1478 1478 1478 1478 1478 1479 1479 1479 1480 1480 1480 1481 1482 1483 1484 1484 1485 1485 1486 1486 1487 1488 1489 1490 1491 1492 1493 1494 1496 1497 1499 1499 1501 1500 1501 1502 1503 1503 1504 1505 1505 1505 1505
1477 1477 1477 1477 1476 1477 1477 1477 1477 1477 1478 1479 1480 1481 1481 1482 1482 1482 1483 1483 1483 1484 1485 1486 1487 1488 1490 1491 1492 1494 1495 1497 1497 1498 1497 1498 1499 1499 1500 1501 1501 1501 1501
1475 1475 1475 1475 1475 1475 1475 1475 1475 1475 1475 1476 1477 1477 1478 1478 1479 1479 1480 1480 1480 1481 1482 1483 1484 1485 1486 1488 1489 1490 1492 1493 1493 1494 1494 1494 1494 1495 1496 1497 1497 1497 1497